EHI
3 3 4 5 4 3 2 1 2 3 3 1 1 1 1 1 1 3 7 14 18 17 14 11 8 7 5 4 4 3 3 2 3 4 4 3 1 0 0 0 1 2 3
4 4 4 3 2 2 2 2 2 4 4 2 2 2 1 0 1 3 7 13 18 17 16 15 13 9 6 6 5 5 5 4 3 4 5 4 2 1 0 0 1 2 3
6 5 2 1 1 1 3 3 2 4 5 3 4 5 4 2 2 3 7 12 16 16 17 19 19 14 10 9 8 7 7 5 4 5 6 5 3 2 1 0 0 1 2
6 4 2 1 2 3 4 4 3 4 3 4 7 8 7 7 7 6 7 11 14 15 17 20 21 18 15 12 10 9 8 7 7 6 6 5 4 3 1 0 0 0 1
4 4 4 5 6 6 6 5 4 4 4 6 8 8 8 9 9 8 8 10 15 17 17 18 20 18 17 16 14 12 10 9 9 9 8 7 5 3 1 0 0 0 0
8 8 7 8 9 9 7 5 5 6 7 7 6 6 7 7 9 10 9 9 14 17 16 18 19 16 15 16 17 16 14 12 11 10 10 9 7 5 3 1 0 0 0
15 14 10 9 9 8 5 3 5 7 8 8 6 6 7 6 8 10 8 7 10 13 14 18 21 18 14 13 13 13 12 11 10 10 10 10 9 7 4 1 0 0 0
18 16 13 10 9 8 6 5 7 8 7 6 7 6 6 6 6 7 6 7 10 11 12 17 22 23 19 14 10 8 8 7 7 7 8 8 8 6 3 1 0 0 0
16 15 13 11 10 9 8 10 12 11 8 6 6 7 7 7 7 6 6 9 12 13 13 15 20 22 22 20 14 9 6 4 4 5 5 5 6 4 3 2 0 0 0
19 17 14 12 11 9 9 12 14 13 11 8 7 8 10 11 12 10 9 9 11 13 14 15 17 19 21 21 18 12 7 3 3 4 3 4 4 4 3 2 0 0 0
26 22 17 15 13 10 8 10 12 13 11 10 9 10 13 15 15 13 9 7 7 8 11 13 15 17 18 18 16 12 8 4 2 2 3 3 3 4 4 2 1 0 0
31 26 21 17 15 12 10 9 10 11 12 11 11 12 15 17 15 12 8 6 6 8 9 11 12 13 14 14 12 10 7 4 1 1 1 2 2 3 3 2 1 0 0
31 28 24 21 18 14 12 12 12 12 13 14 14 15 17 18 17 14 11 8 8 9 9 9 11 12 12 12 11 8 5 3 1 0 0 1 1 1 1 1 1 0 0
28 29 27 23 20 14 12 14 13 13 16 17 16 17 17 18 19 18 15 14 12 10 9 9 10 12 13 12 11 7 5 3 1 0 0 0 0 0 0 0 0 0 0
25 28 27 23 20 15 14 15 13 13 17 18 18 19 19 18 18 19 18 17 15 13 12 12 11 11 11 10 9 7 6 3 1 0 0 0 0 0 0 0 0 0 0
26 28 27 24 21 18 17 16 15 16 18 19 19 20 21 19 18 18 17 15 16 16 16 16 14 11 9 8 7 7 6 3 0 0 0 0 0 0 0 0 0 0 0
31 31 31 29 26 23 22 22 21 22 21 20 20 21 22 21 21 20 17 15 15 18 18 17 15 13 12 10 8 6 4 2 1 0 0 0 0 0 0 0 0 0 0
38 37 35 33 31 29 28 28 27 26 24 22 21 22 24 24 24 24 20 17 17 19 19 18 16 16 15 13 10 7 4 2 2 1 0 0 0 0 0 0 0 0 0
40 39 37 35 34 33 32 31 29 27 25 23 23 23 25 26 26 25 21 19 20 20 19 18 17 16 16 14 11 8 4 2 2 1 0 0 0 0 0 0 0 0 0
40 40 38 37 37 38 37 34 30 27 27 27 26 26 26 25 25 23 20 19 20 19 18 18 17 15 15 14 12 8 4 1 1 0 0 0 0 0 0 0 0 0 0
42 43 42 41 41 38 35 33 30 29 30 30 29 27 25 23 21 19 18 18 19 18 18 18 17 16 15 15 12 9 5 2 1 0 0 0 0 0 0 0 0 0 0
45 46 46 45 42 34 26 22 23 26 30 31 29 26 23 20 18 17 16 16 15 15 15 17 18 17 16 16 14 11 8 5 3 2 1 0 0 0 0 0 0 0 0
48 48 48 47 42 32 19 11 10 17 24 29 29 26 22 20 19 17 16 15 13 12 12 15 16 17 16 17 16 13 10 9 7 4 1 0 0 0 0 0 0 0 0
51 51 49 47 42 33 21 11 7 11 20 27 29 27 24 21 18 16 15 14 13 12 12 14 16 16 14 14 15 14 12 10 9 6 2 1 0 0 0 0 0 0 0
50 51 49 45 41 33 24 14 9 12 19 24 27 26 23 18 15 14 13 14 14 13 13 14 14 13 11 9 10 11 11 11 9 6 3 1 0 0 0 0 0 0 0
48 48 47 44 39 33 24 14 9 14 20 23 26 25 20 15 13 12 12 12 13 13 13 14 13 10 8 6 6 8 11 11 9 6 3 2 1 0 0 0 0 0 0
Wind_Speed
2 1 1 0 0 1 1 0 0 0 0 0 0 1 1 2 3 4 5 10 10 8 7 6 6 5 5 5 6 5 5 6 6 7 6 6 6 6 5 5 5 5 5
2 1 1 1 1 1 1 0 0 0 0 0 1 1 1 1 2 3 5 7 9 8 7 6 6 5 5 5 6 6 5 5 6 7 7 7 7 6 6 5 5 5 5
2 1 1 1 1 1 1 0 0 0 1 1 1 1 1 1 1 2 3 4 5 7 7 7 6 5 5 5 5 5 6 6 6 6 6 7 7 6 6 6 6 5 5
1 1 1 1 1 1 0 0 0 1 1 1 0 1 1 2 2 2 2 3 3 4 6 7 6 5 5 4 4 5 5 6 6 6 6 6 7 7 7 6 6 5 5
1 1 1 1 1 1 1 1 2 1 1 1 1 1 1 1 2 2 2 2 2 3 4 6 7 6 5 4 4 4 4 4 5 6 6 7 7 7 7 6 6 5 5
1 1 0 1 1 1 1 2 1 1 1 1 2 0 1 1 2 2 2 1 2 2 3 4 4 4 5 4 4 5 4 4 3 4 5 6 7 7 6 7 6 5 5
1 1 1 1 1 1 1 2 2 1 1 0 1 1 0 1 1 2 1 1 2 2 2 3 3 2 3 4 4 5 5 4 4 4 4 5 6 6 6 6 7 6 6
0 0 1 1 1 1 1 1 1 1 2 1 1 0 0 0 1 1 1 1 1 1 1 2 2 2 2 2 2 4 4 4 4 4 4 5 6 6 6 7 7 7 6
1 1 1 1 1 1 1 1 1 1 1 2 1 0 0 0 1 1 1 1 1 1 1 1 2 2 2 2 2 3 4 3 3 4 4 5 6 6 6 7 7 6 6
1 1 1 0 1 1 1 1 1 1 1 2 1 1 1 1 1 0 1 1 1 1 1 1 2 2 2 3 4 5 4 3 3 3 4 5 5 5 6 7 7 6 5
1 1 1 0 0 1 1 1 1 1 1 2 2 1 1 0 1 1 1 0 1 1 1 2 2 2 3 3 3 6 6 4 4 4 3 4 4 5 5 6 6 6 6
2 2 2 1 1 0 1 1 1 1 1 2 2 2 1 1 1 1 1 1 0 1 2 1 2 2 2 3 4 7 6 5 4 4 4 4 3 4 5 5 5 5 5
2 2 1 1 1 1 1 0 1 1 1 2 2 2 2 2 1 1 1 1 1 0 0 0 1 1 2 3 4 7 6 6 5 4 3 3 3 3 4 4 4 4 4
2 3 2 1 1 1 1 0 1 1 1 2 2 2 2 2 1 0 1 1 1 0 0 0 1 2 2 3 4 6 5 6 5 4 3 3 3 3 3 4 4 4 4
2 3 2 1 1 1 1 1 1 1 1 1 2 2 2 2 1 1 1 1 1 1 1 1 1 1 1 2 4 3 4 6 6 5 4 4 4 3 4 4 4 4 4
1 2 2 2 1 1 1 1 1 1 1 1 1 1 2 2 1 1 1 1 1 1 0 1 1 1 1 2 5 3 4 7 6 5 5 5 4 4 4 4 4 4 5
2 2 2 2 2 2 2 1 2 2 2 2 2 1 1 1 1 1 0 0 0 1 1 0 1 1 2 2 3 2 3 3 3 5 5 5 5 4 4 5 5 5 5
3 3 3 2 3 2 2 2 2 1 1 2 1 1 2 1 1 1 1 0 0 1 2 1 1 1 2 3 4 3 3 4 4 6 6 6 5 5 4 5 5 5 5
3 3 2 2 3 2 2 2 2 2 2 1 1 1 2 1 1 1 1 1 0 0 1 2 2 1 2 2 3 3 3 2 4 6 6 6 6 5 4 5 6 5 5
3 3 3 3 3 2 2 2 2 2 2 1 1 1 2 1 1 1 1 1 1 1 1 2 2 2 2 3 3 3 2 2 2 4 4 5 5 6 5 6 7 7 6
4 3 3 3 3 3 3 2 3 3 2 2 2 2 1 1 2 0 1 0 1 1 2 2 2 2 2 3 3 3 3 2 2 2 3 3 3 3 4 5 7 8 7
4 3 4 3 4 4 3 3 3 2 2 2 2 2 1 2 3 3 2 2 2 2 2 2 2 2 2 3 3 3 3 3 2 2 3 3 4 4 4 4 8 10 9
4 4 4 4 3 2 2 2 2 2 2 3 3 2 3 2 3 2 3 4 3 4 4 3 3 2 2 2 3 3 3 3 2 2 3 3 3 4 4 5 11 12 11
4 4 4 4 3 4 4 4 3 4 3 3 3 3 3 2 2 2 3 3 3 2 3 3 2 2 2 1 3 3 4 3 2 2 3 2 3 3 3 4 10 13 13
4 4 3 4 4 4 5 5 5 4 4 4 3 3 3 2 2 2 2 2 2 2 1 1 3 3 2 2 2 2 2 2 2 2 2 2 2 2 2 3 6 12 12
4 4 4 4 5 5 6 7 6 4 5 4 3 3 3 3 3 3 3 2 3 3 2 1 1 2 3 3 3 3 3 3 2 2 3 3 2 2 2 2 3 5 6
Wind_Direction
58 62 48 14 62 117 157 230 343 152 229 319 311 62 76 93 108 125 135 148 149 154 158 164 171 181 189 194 200 203 209 214 213 206 202 201 202 197 189 194 196 188 192
46 43 48 12 37 55 57 85 280 279 281 90 23 54 33 79 112 127 138 153 154 158 161 169 173 181 191 200 206 208 207 213 213 207 202 203 204 203 199 194 190 189 190
38 35 22 21 22 35 99 100 340 277 244 196 164 157 114 101 120 121 138 153 163 169 170 171 175 184 193 201 205 198 201 207 208 204 202 203 206 203 200 197 198 191 183
20 15 17 23 349 353 41 138 105 347 5 346 268 215 152 160 157 150 159 163 166 170 176 175 176 187 189 193 190 192 200 200 200 199 200 201 202 200 196 197 191 184 183
50 25 30 8 331 5 359 0 62 20 353 347 270 213 171 163 156 167 162 158 166 160 160 171 178 180 183 183 185 178 179 184 193 193 198 200 197 192 189 188 182 182 184
65 10 80 344 341 18 17 20 17 343 283 288 300 19 147 162 158 137 154 143 140 151 155 151 165 184 183 179 176 174 175 167 169 181 186 191 189 188 187 184 178 178 185
79 45 15 332 351 30 10 15 9 336 317 298 317 339 262 164 152 143 137 110 99 97 108 122 137 157 166 177 180 174 170 168 157 159 174 175 174 174 179 180 180 181 181
27 159 52 334 18 19 15 8 356 332 315 313 295 354 341 35 22 90 114 137 120 106 99 96 110 119 122 133 148 164 169 170 165 164 165 165 169 174 176 180 176 175 178
159 19 74 351 351 350 10 332 323 303 304 306 319 268 269 256 53 42 49 77 83 97 101 93 89 101 114 113 130 143 138 144 165 176 171 163 162 163 164 167 170 172 175
176 135 115 33 346 7 13 295 28 313 304 311 315 266 221 156 184 87 7 44 74 81 88 83 84 84 88 95 95 105 126 134 141 150 164 165 167 170 165 168 173 173 170
190 160 143 132 305 335 335 345 2 338 331 323 309 306 311 281 234 193 211 309 18 38 82 86 86 76 76 86 97 97 109 114 114 119 130 147 154 162 164 167 175 179 179
171 171 155 151 188 261 292 312 307 308 319 314 308 311 299 281 258 212 199 185 109 24 34 58 91 98 95 93 100 102 109 104 103 106 112 116 129 141 145 151 158 162 168
156 150 165 164 196 217 246 286 272 302 296 295 298 300 295 275 248 188 181 177 134 114 20 45 109 110 105 101 105 110 115 112 106 109 118 124 129 136 141 148 154 161 161
141 142 165 167 211 253 269 284 282 259 255 285 296 302 296 294 301 193 180 167 169 184 171 53 68 92 104 117 118 129 122 123 115 109 110 126 132 136 138 140 141 139 141
168 140 163 182 206 220 250 247 269 280 305 297 301 297 288 290 286 238 213 184 177 213 217 149 97 92 96 102 123 131 122 121 118 109 106 112 125 141 145 141 133 131 134
183 145 176 188 209 221 226 241 273 259 252 252 262 297 305 311 323 297 236 198 213 195 175 139 168 159 136 121 129 127 120 129 127 123 118 113 119 130 141 147 148 143 141
198 197 205 208 221 227 224 226 252 260 271 286 287 299 298 294 316 300 333 311 205 131 145 181 128 144 148 129 128 131 126 140 140 139 132 128 124 125 141 155 153 145 143
204 210 212 213 225 222 218 225 248 256 262 278 289 312 299 294 305 308 2 331 106 149 155 170 169 170 168 157 147 159 159 157 148 154 153 149 142 136 139 146 146 147 149
205 213 212 218 228 232 217 223 236 248 263 272 285 288 287 285 290 295 269 247 201 160 139 168 183 168 161 160 155 173 185 159 159 155 164 165 161 158 158 155 151 149 150
207 212 213 222 226 232 221 220 234 236 250 259 262 274 277 266 272 274 255 235 217 181 176 185 181 181 169 165 169 180 182 183 178 161 164 168 175 175 175 176 172 161 158
212 210 212 218 226 227 227 224 230 231 230 244 232 231 248 123 103 154 261 216 235 211 208 212 196 189 177 170 194 190 178 179 197 174 163 178 177 185 191 196 189 182 176
213 213 212 221 227 239 235 222 219 246 233 238 241 226 204 167 170 181 187 200 220 228 233 225 225 211 205 196 188 188 180 187 207 191 176 195 184 195 195 190 189 188 188
210 218 218 217 217 229 234 245 242 248 259 256 254 242 258 222 180 180 185 207 229 243 236 238 231 228 218 198 185 194 198 202 212 193 186 210 192 197 203 200 188 192 194
209 216 219 220 213 217 215 219 233 232 249 253 240 227 233 225 241 210 212 209 208 222 239 234 235 237 216 203 200 203 199 200 209 196 172 205 207 207 209 189 191 193 197
213 218 216 216 219 215 215 214 215 226 234 243 233 236 234 231 231 229 219 227 230 226 232 193 174 174 172 191 205 196 199 197 215 212 189 203 213 216 211 205 194 194 199
218 221 223 220 223 221 213 212 213 231 231 232 224 221 225 231 204 206 214 219 227 238 222 189 189 200 206 212 218 216 219 224 225 222 193 188 205 197 223 213 192 188 202